Miscellaneous Local Product
Issued by NWS North Platte, NE

Home | Current Version | Previous Version | Text Only | Print | Product List | Glossary On
Versions: 1 2 3 4 5 6 7 8 9 10 11 12 13 14 15 16 17 18 19 20 21 22 23 24 25 26 27 28 29 30 31 32 33 34 35 36 37 38 39 40 41 42 43 44 45 46 47 48 49 50
000
AXUS43 KLBF 021910
MISLBF


WESTERN AND NORTH CENTRAL NEBRASKA HOURLY WEATHER ROUNDUP
NATIONAL WEATHER SERVICE NORTH PLATTE NE
200 PM CDT SAT MAY 02 2015

***STATIONS NOT REPORTING VARIABLES SUCH AS SKY/WEATHER OR
PRESSURE ARE PROVIDED BY THE NEBRASKA DEPARTMENT OF
ROADS...RAWS...AND APRS NETWORKS...AND ARE NOT UNDER
NATIONAL WEATHER SERVICE QUALITY CONTROL***

...OBSERVATIONS IN AND NEAR THE EASTERN PANHANDLE OF NEBRASKA...

CITY           SKY/WX    TMP DP  RH WIND       PRES   REMARKS
PINE RIDGE     SUNNY     78  42  27 W13       29.78F
CHADRON        SUNNY     80  35  19 SW14      29.77F
ALLIANCE       SUNNY     80  29  15 W17G29    29.82F
SIDNEY         MOSUNNY   78  35  21 W12       29.89F
WHITECLAY        N/A     77  40  25 W7          N/A
CRESCENT LAKE    N/A     80  33  18 NW13G20     N/A
BIG SPRINGS      N/A     82  39  21 W12         N/A
$$

...OBSERVATIONS IN NORTH CENTRAL NEBRASKA...

CITY           SKY/WX    TMP DP  RH WIND       PRES   REMARKS
VALENTINE      SUNNY     81  41  24 S14G22    29.77F
THEDFORD       SUNNY     81  49  32 S12       29.81F
AINSWORTH      SUNNY     79  43  28 SE12G17   29.80F
O`NEILL        SUNNY     80  49  34 S5        29.81F
ORD            SUNNY     80  49  33 SW12G22   29.80F
BROKEN BOW     SUNNY     82  49  31 S9G18     29.82F
BROWNLEE         N/A     82  43  24 S14         N/A
VALENTINE NWR    N/A     78  48  34 S12G20      N/A
SPRINGVIEW       N/A     81  50  33 S3G12       N/A
HALSEY           N/A     78  49  35 S9          N/A
BREWSTER         N/A     82  53  36 S12         N/A
ROSE             N/A     81  52  36 SE10        N/A
NEWPORT          N/A     80  47  30 S10         N/A
SARGENT          N/A     79  50  36 SW7G16      N/A
COMSTOCK         N/A     85  52  31 SW8         N/A
EWING            N/A     80  55  42 S7          N/A
$$

...OBSERVATIONS IN SOUTHWEST NEBRASKA AND FAR NORTHEAST COLORADO...

CITY           SKY/WX    TMP DP  RH WIND       PRES   REMARKS
WRAY           FAIR      82  41  23 W5        29.89F
IMPERIAL       SUNNY     82  42  24 W10G18    29.85F
OGALLALA       SUNNY     80  47  31 SW10G16   29.84F
NORTH PLATTE   SUNNY     79  51  37 S12G23    29.81F
MCCOOK         MOSUNNY   86  47  25 SW14      29.82F
LEXINGTON      SUNNY     82  52  35 SW8       29.82F
PAXTON           N/A     82  47  29 S5          N/A
SUTHERLAND       N/A     84  47  27 SW8         N/A
GOTHENBURG       N/A     81  47  30 S6          N/A
CALLAWAY         N/A     81  54  38 S12         N/A
$$

...NORTH PLATTE AREA...

CITY           SKY/WX    TMP DP  RH WIND       PRES   REMARKS
AIRPORT        SUNNY     79  51  37 S12G23    29.81F
DOWNTOWN         N/A     81  50  33 S7G15       N/A
$$

...SOME WEATHER OBSERVATIONS FROM AROUND THE REGION...

CITY           SKY/WX    TMP DP  RH WIND       PRES   REMARKS
DENVER         PTSUNNY   75  33  21 VRB3      29.97F
LARAMIE        PTSUNNY   66  30  26 W22G30    30.02F
CHEYENNE       MOSUNNY   71  34  25 SW10G23   29.98F
SCOTTSBLUFF    SUNNY     80  27  14 W13G30    29.85F
RAPID CITY     MOSUNNY   84  39  20 S14G22    29.71F
PIERRE         MOSUNNY   85  38  18 S12G26    29.68F
WINNER         FAIR      84  45  25 S13G24    29.75F
SIOUX FALLS    MOSUNNY   79  52  38 S18G26    29.80F
OMAHA          MOSUNNY   69  55  60 S18G31    29.90F
GRAND ISLAND   SUNNY     80  52  37 VRB7G23   29.82F
KANSAS CITY    PTSUNNY   72  52  49 S16       29.99F
WICHITA        MOSUNNY   81  50  33 S21G30    29.94F
HAYS           SUNNY     84  50  30 S17       29.86F
LIBERAL        SUNNY     84  43  23 S22G29    29.93F
GOODLAND       MOSUNNY   80  45  28 S3        29.88F
$$



USA.gov is the U.S. government's official web portal to all federal, state and local government web resources and services.